This demonstration page uses our WeatherBlox Daily Observations layout. Learn more.

Left ArrowRight Arrow

38.89511, -77.03637

Hourly Observations for January 5, 2019

Temp ( °F °C ) Dew Point ( °F °C ) Humidity (%) Winds ( mph kmh ) Pressure ( in mb ) Visibility ( mi km ) Precip ( " mm )
12:52 am 00:52 Cloudy 46 7.8 43 6.1 89 89 NE 9 15 29.60 1002 8 13 0.00 0.03
1:52 am 01:52 Cloudy 46 7.8 44 6.7 93 93 NE 7 11 29.57 1002 7 11 0.01 0.25
2:28 am 02:28 Cloudy with Mist and Fog 46 7.8 44 6.7 93 93 NE 6 9 29.56 1001 6 10 0.00 0.03
2:52 am 02:52 Cloudy with Mist and Fog 47 8.3 44 6.7 90 90 N 7 11 29.55 1001 6 10 0.00 0.03
3:23 am 03:23 Cloudy with Light Rain 47 8.3 44 6.7 90 90 NW 6 9 29.56 1001 3 4 0.01 0.25
3:42 am 03:42 Cloudy with Mist and Fog 47 8.3 44 6.7 90 90 N 6 9 29.53 1000 3 4 0.02 0.51
3:44 am 03:44 Cloudy with Mist and Fog 47 8.3 44 6.7 90 90 N 6 9 29.53 1000 5 8 0.02 0.51
3:52 am 03:52 Cloudy with Mist and Fog 47 8.3 44 6.7 90 90 NNE 6 9 29.53 1000 5 8 0.02 0.51
4:52 am 04:52 Cloudy 46 7.8 44 6.7 93 93 ENE 7 11 29.49 999 8 13 0.00 0.03
5:16 am 05:16 Cloudy 47 8.3 44 6.7 90 90 NE 3 6 29.50 999 9 14 0.00 0.00
5:49 am 05:49 Cloudy with Mist and Fog 46 8 45 7 93 93 N 3 6 29.47 998 5 8 0.00 0.00
5:52 am 05:52 Cloudy with Mist and Fog 47 8.3 44 6.7 90 90 NNE 3 6 29.48 998 5 8 0.00 0.00
6:52 am 06:52 Cloudy with Drizzle 47 8.3 44 6.7 90 90 NNW 7 11 29.48 998 3 5 0.00 0.03
7:22 am 07:22 Cloudy with Drizzle 47 8.3 44 6.7 90 90 N 7 11 29.47 998 3 5 0.00 0.03
7:30 am 07:30 Cloudy with Drizzle 47 8.3 44 6.7 90 90 N 6 9 29.47 998 3 4 0.00 0.03
7:52 am 07:52 Cloudy with Drizzle 47 8.3 44 6.7 90 90 NW 6 9 29.49 999 2 3 0.00 0.03
8:46 am 08:46 Cloudy 46 8 45 7 93 93 NW 9 15 29.53 1000 7 11 0.00 0.03
8:52 am 08:52 Cloudy 47 8.3 43 6.1 86 86 NNW 7 11 29.52 1000 8 13 0.00 0.03
9:47 am 09:47 Cloudy 46 8 43 6 87 87 NW 8 13 29.53 1000 10 16 0.00 0.00
9:52 am 09:52 Cloudy 47 8.3 43 6.1 86 86 NW 10 17 29.54 1001 10 16 0.00 0.00
10:52 am 10:52 Cloudy 47 8.3 43 6.1 86 86 W 9 15 29.55 1001 10 16 0.00 0.00
11:09 am 11:09 Cloudy 48 8.9 43 6.1 83 83 WNW 7 11 29.56 1001 10 16 0.00 0.00
11:44 am 11:44 Cloudy 49 9.4 42 5.6 77 77 WNW 8 13 29.56 1001 10 16 0.00 0.00
11:52 am 11:52 Cloudy 49 9.4 43 6.1 80 80 WNW 13 20 29.56 1001 10 16 0.00 0.00
12:18 pm 12:18 Mostly Cloudy 50 10 42 5.6 74 74 WNW 14 22 29.56 1001 10 16 0.00 0.00
12:52 pm 12:52 Cloudy 52 11.1 42 5.6 69 69 WNW 14 22 29.56 1001 10 16 0.00 0.00
1:52 pm 13:52 Cloudy 51 10.6 42 5.6 71 71 WNW 14 22 29.59 1002 10 16 0.00 0.00
2:15 pm 14:15 Cloudy with Light Rain 50 10 42 5.6 74 74 WNW 15 24 29.59 1002 10 16 0.00 0.03
2:30 pm 14:30 Cloudy with Light Rain 50 10 43 6.1 77 77 NW 14 22 29.62 1003 10 16 0.01 0.25
2:37 pm 14:37 Cloudy 51 10.6 43 6.1 74 74 NW 17 28 29.62 1003 10 16 0.01 0.25
2:52 pm 14:52 Mostly Cloudy 51 10.6 42 5.6 71 71 NW 18 30 29.62 1003 10 16 0.01 0.25
3:52 pm 15:52 Partly Cloudy 54 12.2 41 5 62 62 NW 10 17 29.66 1004 10 16 0.00 0.00
4:52 pm 16:52 Mostly Sunny 54 12.2 39 3.9 57 57 NW 15 24 29.70 1006 10 16 0.00 0.00
5:52 pm 17:52 Mostly Clear 53 11.7 39 3.9 59 59 W 6 9 29.74 1007 10 16 0.00 0.00
6:52 pm 18:52 Clear 53 11.7 37 2.8 55 55 W 9 15 29.78 1008 10 16 0.00 0.00
7:52 pm 19:52 Clear 52 11.1 36 2.2 55 55 WNW 9 15 29.81 1009 10 16 0.00 0.00
8:52 pm 20:52 Clear 51 10.6 36 2.2 56 56 WNW 10 17 29.83 1010 10 16 0.00 0.00
9:52 pm 21:52 Clear 51 10.6 35 1.7 54 54 W 8 13 29.84 1011 10 16 0.00 0.00
10:52 pm 22:52 Clear 52 11.1 35 1.7 53 53 WNW 12 19 29.85 1011 10 16 0.00 0.00
11:52 pm 23:52 Clear 50 10 34 1.1 54 54 W 6 9 29.85 1011 10 16 0.00 0.00

Powered by AerisWeather